• In Czech Republic
  • List of Countries
  • For 7 days
  • Water Temperature
  • Satellite Maps
  • Weather Map
  • Weather Widgets
  • user-avatar
    Login

    Hourly Weather Mingachevir

    Today, 27 July, Thursday

    Time Temperature Precipitation Wind Pressure Humidity
    00:00 +29°C° 0 mm 3 mps 748 mmHg 48%
    01:00 +29°C° 0 mm 2 mps 749 mmHg 49%
    02:00 +28°C° 0 mm 2 mps 749 mmHg 50%
    03:00 +28°C° 0 mm 2 mps 748 mmHg 51%
    04:00 +28°C° 0 mm 2 mps 749 mmHg 51%
    05:00 +28°C° 0 mm 2 mps 749 mmHg 51%
    06:00 +29°C° 0 mm 1 mps 749 mmHg 51%
    07:00 +30°C° 0 mm 1 mps 749 mmHg 45%
    08:00 +32°C° 0 mm 2 mps 749 mmHg 40%
    09:00 +35°C° 0 mm 2 mps 749 mmHg 35%
    10:00 +36°C° 0 mm 2 mps 749 mmHg 32%
    11:00 +38°C° 0 mm 2 mps 749 mmHg 30%
    12:00 +39°C° 0 mm 3 mps 748 mmHg 28%
    13:00 +40°C° 0 mm 3 mps 748 mmHg 27%
    14:00 +40°C° 0 mm 3 mps 748 mmHg 25%
    15:00 +42°C° 0 mm 3 mps 748 mmHg 24%
    16:00 +42°C° 0 mm 3 mps 748 mmHg 25%
    17:00 +40°C° 0 mm 3 mps 748 mmHg 26%
    18:00 +41°C° 0 mm 4 mps 748 mmHg 27%
    19:00 +38°C° 0 mm 4 mps 748 mmHg 29%
    20:00 +36°C° 0 mm 4 mps 749 mmHg 32%
    21:00 +34°C° 0 mm 4 mps 749 mmHg 34%
    22:00 +33°C° 0 mm 4 mps 749 mmHg 35%
    23:00 +31°C° 0 mm 3 mps 750 mmHg 37%

    Tomorrow, 28 July, Friday

    Time Temperature Precipitation Wind Pressure Humidity
    00:00 +30°C° 0 mm 3 mps 750 mmHg 38%
    01:00 +29°C° 0 mm 2 mps 750 mmHg 39%
    02:00 +29°C° 0 mm 2 mps 750 mmHg 40%
    03:00 +29°C° 0 mm 2 mps 750 mmHg 41%
    04:00 +29°C° 0 mm 1 mps 750 mmHg 41%
    05:00 +29°C° 0 mm 1 mps 750 mmHg 40%
    06:00 +30°C° 0 mm 1 mps 750 mmHg 40%
    07:00 +32°C° 0 mm 1 mps 749 mmHg 36%
    08:00 +33°C° 0 mm 1 mps 749 mmHg 32%
    09:00 +36°C° 0 mm 2 mps 749 mmHg 28%
    10:00 +37°C° 0 mm 2 mps 749 mmHg 26%
    11:00 +39°C° 0 mm 2 mps 748 mmHg 24%
    12:00 +40°C° 0 mm 2 mps 748 mmHg 22%
    13:00 +41°C° 0 mm 2 mps 747 mmHg 21%
    14:00 +42°C° 0 mm 2 mps 747 mmHg 20%
    15:00 +44°C° 0 mm 3 mps 746 mmHg 19%
    16:00 +43°C° 0 mm 3 mps 746 mmHg 19%
    17:00 +43°C° 0 mm 3 mps 746 mmHg 20%
    18:00 +42°C° 0 mm 3 mps 746 mmHg 21%
    19:00 +39°C° 0 mm 3 mps 747 mmHg 24%
    20:00 +37°C° 0 mm 3 mps 747 mmHg 27%
    21:00 +34°C° 0 mm 3 mps 748 mmHg 30%
    22:00 +33°C° 0 mm 3 mps 748 mmHg 33%
    23:00 +31°C° 0 mm 3 mps 748 mmHg 35%

    Day after tomorrow, 29 July, Saturday

    Time Temperature Precipitation Wind Pressure Humidity
    00:00 +30°C° 0 mm 2 mps 748 mmHg 38%
    01:00 +30°C° 0 mm 2 mps 748 mmHg 40%
    02:00 +29°C° 0 mm 1 mps 748 mmHg 42%
    03:00 +29°C° 0 mm 1 mps 748 mmHg 43%
    04:00 +29°C° 0 mm 1 mps 748 mmHg 42%
    05:00 +30°C° 0 mm 2 mps 748 mmHg 41%
    06:00 +30°C° 0 mm 2 mps 748 mmHg 39%
    07:00 +33°C° 0 mm 3 mps 748 mmHg 34%
    08:00 +36°C° 0 mm 3 mps 748 mmHg 29%
    09:00 +38°C° 0 mm 3 mps 748 mmHg 24%
    10:00 +39°C° 0 mm 3 mps 747 mmHg 23%
    11:00 +42°C° 0 mm 3 mps 747 mmHg 21%
    12:00 +43°C° 0 mm 3 mps 747 mmHg 19%
    13:00 +43°C° 0 mm 2 mps 746 mmHg 18%
    14:00 +43°C° 0 mm 2 mps 746 mmHg 17%
    15:00 +45°C° 0 mm 2 mps 745 mmHg 17%
    16:00 +44°C° 0 mm 1 mps 745 mmHg 18%
    17:00 +43°C° 0 mm 1 mps 746 mmHg 19%
    18:00 +43°C° 0 mm 1 mps 746 mmHg 20%
    19:00 +41°C° 0 mm 1 mps 746 mmHg 23%
    20:00 +38°C° 0 mm 2 mps 747 mmHg 26%
    21:00 +36°C° 0 mm 3 mps 748 mmHg 29%
    22:00 +35°C° 0 mm 2 mps 748 mmHg 33%
    23:00 +34°C° 0 mm 2 mps 748 mmHg 37%

    30 July, Sunday

    Time Temperature Precipitation Wind Pressure Humidity
    00:00 +32°C° 0 mm 2 mps 749 mmHg 41%
    01:00 +31°C° 0 mm 2 mps 749 mmHg 43%
    02:00 +31°C° 0 mm 3 mps 749 mmHg 45%
    03:00 +31°C° 0 mm 3 mps 749 mmHg 47%
    04:00 +31°C° 0 mm 3 mps 750 mmHg 47%
    05:00 +32°C° 0 mm 4 mps 750 mmHg 48%
    06:00 +32°C° 0 mm 4 mps 750 mmHg 48%
    07:00 +34°C° 0 mm 4 mps 750 mmHg 42%
    08:00 +36°C° 0 mm 4 mps 750 mmHg 37%
    09:00 +38°C° 0 mm 4 mps 750 mmHg 31%
    10:00 +40°C° 0 mm 4 mps 750 mmHg 29%
    11:00 +40°C° 0 mm 3 mps 750 mmHg 26%
    12:00 +41°C° 0 mm 2 mps 750 mmHg 24%
    13:00 +41°C° 0 mm 2 mps 749 mmHg 23%
    14:00 +42°C° 0 mm 2 mps 749 mmHg 22%
    15:00 +43°C° 0 mm 2 mps 749 mmHg 21%
    16:00 +42°C° 0 mm 2 mps 749 mmHg 22%
    17:00 +43°C° 0 mm 3 mps 749 mmHg 23%
    18:00 +42°C° 0 mm 3 mps 749 mmHg 24%
    19:00 +40°C° 0 mm 4 mps 750 mmHg 29%
    20:00 +37°C° 0 mm 5 mps 751 mmHg 34%
    21:00 +35°C° 0 mm 5 mps 751 mmHg 40%
    22:00 +34°C° 0.2 mm 4 mps 752 mmHg 44%
    23:00 +33°C° 0.2 mm 4 mps 752 mmHg 47%

    31 July, Monday

    Time Temperature Precipitation Wind Pressure Humidity
    00:00 +31°C° 0.2 mm 3 mps 752 mmHg 51%
    01:00 +30°C° 0 mm 2 mps 752 mmHg 53%
    02:00 +30°C° 0 mm 2 mps 752 mmHg 54%
    03:00 +29°C° 0 mm 2 mps 753 mmHg 55%
    04:00 +30°C° 0 mm 1 mps 753 mmHg 54%
    05:00 +30°C° 0 mm 1 mps 753 mmHg 53%
    06:00 +30°C° 0 mm 1 mps 753 mmHg 52%
    07:00 +32°C° 0 mm 2 mps 753 mmHg 47%
    08:00 +35°C° 0 mm 3 mps 754 mmHg 41%
    09:00 +37°C° 0 mm 4 mps 754 mmHg 35%
    10:00 +39°C° 0 mm 5 mps 753 mmHg 33%
    11:00 +40°C° 0 mm 5 mps 753 mmHg 30%
    12:00 +41°C° 0 mm 6 mps 752 mmHg 28%
    13:00 +42°C° 0 mm 6 mps 752 mmHg 27%
    14:00 +42°C° 0 mm 6 mps 752 mmHg 26%
    15:00 +42°C° 0 mm 6 mps 751 mmHg 26%
    16:00 +41°C° 0 mm 7 mps 752 mmHg 28%
    17:00 +40°C° 0 mm 7 mps 752 mmHg 30%
    18:00 +39°C° 0 mm 8 mps 752 mmHg 32%
    19:00 +36°C° 0 mm 7 mps 752 mmHg 37%
    20:00 +34°C° 0 mm 7 mps 753 mmHg 42%
    21:00 +33°C° 0 mm 6 mps 754 mmHg 47%
    22:00 +32°C° 0 mm 5 mps 754 mmHg 50%
    23:00 +30°C° 0 mm 4 mps 754 mmHg 53%

    1 August, Tuesday

    Time Temperature Precipitation Wind Pressure Humidity
    00:00 +29°C° 0 mm 4 mps 754 mmHg 56%
    01:00 +29°C° 0 mm 3 mps 754 mmHg 58%
    02:00 +28°C° 0 mm 2 mps 754 mmHg 59%
    03:00 +28°C° 0 mm 2 mps 754 mmHg 60%
    04:00 +28°C° 0 mm 2 mps 754 mmHg 59%
    05:00 +28°C° 0 mm 2 mps 754 mmHg 57%
    06:00 +29°C° 0 mm 2 mps 755 mmHg 56%
    07:00 +30°C° 0 mm 2 mps 754 mmHg 50%
    08:00 +33°C° 0 mm 3 mps 754 mmHg 44%
    09:00 +35°C° 0 mm 4 mps 754 mmHg 38%
    10:00 +36°C° 0 mm 4 mps 754 mmHg 36%
    11:00 +37°C° 0 mm 4 mps 754 mmHg 33%
    12:00 +40°C° 0 mm 5 mps 753 mmHg 30%
    13:00 +40°C° 0 mm 5 mps 753 mmHg 29%
    14:00 +41°C° 0 mm 5 mps 752 mmHg 28%
    15:00 +41°C° 0 mm 5 mps 752 mmHg 27%
    16:00 +41°C° 0 mm 5 mps 752 mmHg 28%
    17:00 +40°C° 0 mm 6 mps 752 mmHg 29%
    18:00 +39°C° 0 mm 6 mps 752 mmHg 31%
    19:00 +36°C° 0 mm 6 mps 753 mmHg 35%
    20:00 +34°C° 0 mm 6 mps 754 mmHg 39%
    21:00 +32°C° 0 mm 6 mps 754 mmHg 43%
    22:00 +32°C° 0 mm 5 mps 754 mmHg 45%
    23:00 +30°C° 0 mm 4 mps 754 mmHg 47%
    Show more